Weather History for Fayetteville, NC

Change the Weather History Date:

Wednesday, May 2, 2012

  Actual Average Record
Temperature  
Mean Temperature 78 °F 67 °F  
Max Temperature 91 °F 79 °F 94 °F (2010)
Min Temperature 65 °F 55 °F 37 °F (1963)
Degree Days  
Heating Degree Days 0 2  
Month to date heating degree days 0 4  
Since 1 July heating degree days 2143 2711  
Cooling Degree Days 13 4  
Month to date cooling degree days 25 8  
Year to date cooling degree days 182 91  
Growing Degree Days 28 (Base 50)    
Moisture  
Dew Point 65 °F    
Average Humidity 69    
Maximum Humidity 93    
Minimum Humidity 44    
Precipitation  
Precipitation 0.00 in 0.05 in 1.42 in (1989)
Month to date precipitation 0.00 0.11  
Year to date precipitation 9.76 12.54  
Sea Level Pressure  
Sea Level Pressure 30.09 in    
Wind  
Wind Speed 8 mph (SW)    
Max Wind Speed 16 mph    
Max Gust Speed 20 mph    
Visibility 10 miles    
Events      
T = Trace of Precipitation, MM = Missing Value Source: NWS Daily Summary

Daily Weather History Graph

Daily Weather History Graph

Search for Another Location

Airport:

Trip Planner

Search our weather history database for the weather conditions in past years. The results will help you decide how hot, cold, wet, or windy it might be!

Date:

Astronomy

May. 02, 2012 Rise Set
Actual Time 6:23 AM EDT 8:02 PM EDT
Civil Twilight 5:56 AM EDT 8:29 PM EDT
Nautical Twilight 5:23 AM EDT 9:02 PM EDT
Astronomical Twilight 4:48 AM EDT 9:36 PM EDT
Moon 4:20 PM EDT 3:42 AM EDT
Length of Visible Light 14h 33m
Length of Day
13h 39m
Waxing Gibbous, 83% of the Moon is Illuminated
May 2
Waxing Gibbous
May 5
Full
May 12
Last Quarter
May 20
New
May 28
First Quarter

Hourly Weather History & Observations

Time (EDT) Temp. Heat Index Dew Point Humidity Pressure Visibility Wind Dir Wind Speed Gust Speed Precip Events Conditions
12:53 AM 71.1 °F - 64.9 °F 81% 30.08 in 10.0 mi SSW 8.1 mph - N/A   Clear
1:53 AM 70.0 °F - 64.9 °F 84% 30.06 in 10.0 mi SSW 10.4 mph - N/A   Clear
2:53 AM 69.1 °F - 64.9 °F 87% 30.06 in 10.0 mi SSW 9.2 mph - N/A   Clear
3:53 AM 68.0 °F - 64.9 °F 90% 30.07 in 10.0 mi SSW 9.2 mph - N/A   Clear
4:53 AM 66.9 °F - 64.9 °F 93% 30.07 in 10.0 mi SSW 5.8 mph - N/A   Clear
5:46 AM 66.2 °F - 64.4 °F 94% 30.10 in 8.0 mi SSW 8.1 mph - N/A   Mostly Cloudy
5:53 AM 66.0 °F - 64.9 °F 96% 30.08 in 8.0 mi SSW 9.2 mph - N/A   Mostly Cloudy
6:28 AM 68.0 °F - 64.4 °F 88% 30.11 in 9.0 mi SW 11.5 mph - N/A   Overcast
6:53 AM 68.0 °F - 64.4 °F 88% 30.12 in 8.0 mi WSW 6.9 mph - N/A   Scattered Clouds
7:53 AM 69.1 °F - 66.0 °F 90% 30.13 in 8.0 mi WSW 6.9 mph - N/A   Partly Cloudy
8:04 AM 69.8 °F - 66.2 °F 88% 30.15 in 8.0 mi WSW 9.2 mph - N/A   Mostly Cloudy
8:53 AM 72.0 °F - 64.9 °F 78% 30.14 in 10.0 mi WSW 13.8 mph 18.4 mph N/A   Mostly Cloudy
9:00 AM 73.4 °F - 66.2 °F 78% 30.16 in 10.0 mi WSW 11.5 mph - N/A   Scattered Clouds
9:53 AM 77.0 °F - 64.9 °F 66% 30.14 in 10.0 mi WSW 11.5 mph - N/A   Clear
10:53 AM 79.0 °F - 64.9 °F 62% 30.14 in 10.0 mi West 12.7 mph - N/A   Clear
11:53 AM 81.0 °F 82.7 °F 64.9 °F 58% 30.12 in 10.0 mi West 6.9 mph 19.6 mph N/A   Clear
12:53 PM 84.0 °F 86.3 °F 66.0 °F 55% 30.11 in 10.0 mi WSW 11.5 mph - N/A   Clear
1:53 PM 86.0 °F 88.2 °F 66.0 °F 51% 30.09 in 10.0 mi SSW 8.1 mph 16.1 mph N/A   Clear
2:53 PM 88.0 °F 89.3 °F 64.0 °F 45% 30.07 in 10.0 mi West 6.9 mph - N/A   Clear
3:53 PM 89.1 °F 90.3 °F 64.0 °F 43% 30.05 in 10.0 mi WSW 3.5 mph - N/A   Clear
4:53 PM 90.0 °F 91.3 °F 64.0 °F 42% 30.04 in 10.0 mi SW 5.8 mph - N/A   Partly Cloudy
5:53 PM 90.0 °F 91.7 °F 64.9 °F 43% 30.04 in 10.0 mi SSW 9.2 mph - N/A   Clear
6:53 PM 87.1 °F 88.9 °F 64.9 °F 48% 30.04 in 10.0 mi SW 8.1 mph - N/A   Clear
7:53 PM 82.9 °F 85.0 °F 66.0 °F 56% 30.05 in 10.0 mi SSW 5.8 mph - N/A   Clear
8:53 PM 80.1 °F 82.1 °F 66.0 °F 62% 30.06 in 10.0 mi SSW 8.1 mph - N/A   Clear
9:53 PM 75.9 °F - 66.0 °F 71% 30.08 in 10.0 mi SSW 6.9 mph - N/A   Clear
10:53 PM 75.9 °F - 66.9 °F 74% 30.08 in 10.0 mi SSW 11.5 mph - N/A   Clear
11:53 PM 73.0 °F - 68.0 °F 84% 30.09 in 10.0 mi SSW 6.9 mph - N/A   Clear